ECHOSTAR 15

Last updated on Sun Dec 07 2025 00:02:47 GMT+0000 (Coordinated Universal Time)

1 36792U 10034A 25340.44789731 .00000007 00000+0 00000+0 0 9997 2 36792 0.0221 294.2072 0002635 294.2741 249.4509 1.00271110 56394
UTC large
Height (km)
Speed (km/s)
/
Latitude / Longitude
Inclination (degrees)
Orbital Period (minutes)
Azimuth
Elevation
Range (km)
Doppler Factor

Next 0 passes for location: London (51.5072 / 0.1276)

Sorry there are no passes over London.